Location: ????????
(55.6189°N, 38.3031°E)
Time: 09:45:58
(UTC+00:00)

SL-16 R/B - Pass Details

Date: 26 February 2020
Orbit: 843 x 847 km, 71.0° (Epoch: 07 April)

Event Time Altitude Azimuth Distance (km) Brightness Sun altitude
Exits shadow 23:02:48 18° 66° (ENE) 1,992 4.5 -40.2°
Drops below altitude 10° 23:04:36 10° 51° (NE) 2,476 5.2 -40.1°
Sets 23:07:26 0° 39° (NE) 3,415 6.2 -39.9°
